Dades meteomassalio
Diari Summary for Marc 11, 2017 Units:  Metric    English   Both
« Previous Day
Next Day »
Diari Semanal Mensual Anual Personalitzat
  Maxima: Minima: Mijana:
Temperatura: -17.8 °C -14.8 °C -9.7 °C
Rosada: -17.8 °C -16.3 °C -14.8 °C
Humitat: Humidity % 27 % 59 %
Velocitat del vent: 0 km/h 0 km/h 2.9 km/h
Racha vent: 0 km/h - -
Vent:- - SE
Pressio: 0 hPa 34313.7 hPa -
Pluja: 0 mm    
Historical Graphs
 
 
Tabular Data for Marc 11, 2017
Time Temperature Dew Point Pressure Wind Wind Speed Wind Gust Humidity Rainfall Rate (Hourly) solar Conditions
-17.8 °C -17.8 °C 0 hPa Calm     Humidity % 0 mm SolarRadiationWatts/m^2 W/m2 Conditions
00:02 -12.2 °C -15.4 °C 34510.1 hPa Calm     68 % 0 mm 0.0 W/m2 CLR
00:07 -12.3 °C -15.4 °C 34510.1 hPa Calm     69 % 0 mm 0.0 W/m2 CLR
00:12 -12.4 °C -15.3 °C 34510.1 hPa Calm     70 % 0 mm 0.0 W/m2 CLR
00:17 -12.5 °C -15.3 °C 34510.1 hPa Calm     71 % 0 mm 0.0 W/m2 CLR
00:22 -12.6 °C -15.4 °C 34510.1 hPa Calm     71 % 0 mm 0.0 W/m2 CLR
00:27 -12.7 °C -15.4 °C 34510.1 hPa Calm     71 % 0 mm 0.0 W/m2 CLR
00:32 -12.7 °C -15.4 °C 34510.1 hPa Calm     72 % 0 mm 0.0 W/m2 CLR
00:37 -12.7 °C -15.4 °C 34510.1 hPa Calm     72 % 0 mm 0.0 W/m2 CLR
00:42 -12.7 °C -15.5 °C 34510.1 hPa Calm     71 % 0 mm 0.0 W/m2 CLR
00:47 -12.7 °C -15.5 °C 34510.1 hPa Calm     71 % 0 mm 0.0 W/m2 CLR
00:52 -12.8 °C -15.6 °C 34496.6 hPa Calm     71 % 0 mm 0.0 W/m2 CLR
00:57 -12.8 °C -15.4 °C 34510.1 hPa Calm     72 % 0 mm 0.0 W/m2 CLR
01:02 -12.8 °C -15.5 °C 34496.6 hPa Calm     72 % 0 mm 0.0 W/m2 CLR
01:07 -12.9 °C -15.6 °C 34496.6 hPa Calm     72 % 0 mm 0.0 W/m2 CLR
01:12 -12.9 °C -15.5 °C 34510.1 hPa Calm     73 % 0 mm 0.0 W/m2 CLR
01:17 -13 °C -15.4 °C 34496.6 hPa Calm     74 % 0 mm 0.0 W/m2 CLR
01:22 -13.1 °C -15.6 °C 34496.6 hPa Calm     74 % 0 mm 0.0 W/m2 CLR
01:27 -13.2 °C -15.5 °C 34496.6 hPa Calm     75 % 0 mm 0.0 W/m2 CLR
01:33 -13.2 °C -15.6 °C 34496.6 hPa Calm     75 % 0 mm 0.0 W/m2 CLR
01:38 -13.3 °C -15.5 °C 34510.1 hPa Calm     76 % 0 mm 0.0 W/m2 CLR
01:43 -13.4 °C -15.6 °C 34510.1 hPa Calm     76 % 0 mm 0.0 W/m2 CLR
01:48 -13.4 °C -15.7 °C 34510.1 hPa Calm     75 % 0 mm 0.0 W/m2 CLR
01:53 -13.4 °C -15.7 °C 34510.1 hPa Calm     75 % 0 mm 0.0 W/m2 CLR
01:58 -13.4 °C -15.6 °C 34510.1 hPa Calm     76 % 0 mm 0.0 W/m2 CLR
01:59 -13.4 °C -15.6 °C 34510.1 hPa Calm     76 % 0 mm 0.0 W/m2 CLR
02:04 -13.3 °C -15.7 °C 34496.6 hPa Calm     75 % 0 mm 0.0 W/m2 CLR
02:09 -13.3 °C -15.7 °C 34496.6 hPa Calm     74 % 0 mm 0.0 W/m2 CLR
02:14 -13.3 °C -15.7 °C 34496.6 hPa Calm     74 % 0 mm 0.0 W/m2 CLR
02:19 -13.3 °C -15.7 °C 34496.6 hPa Calm     74 % 0 mm 0.0 W/m2 CLR
02:24 -13.3 °C -15.7 °C 34496.6 hPa Calm     75 % 0 mm 0.0 W/m2 CLR
02:29 -13.4 °C -15.6 °C 34496.6 hPa Calm     76 % 0 mm 0.0 W/m2 CLR
02:34 -13.5 °C -15.7 °C 34496.6 hPa Calm     76 % 0 mm 0.0 W/m2 CLR
02:39 -13.6 °C -15.7 °C 34496.6 hPa Calm     76 % 0 mm 0.0 W/m2 CLR
02:44 -13.6 °C -15.7 °C 34496.6 hPa Calm     77 % 0 mm 0.0 W/m2 CLR
02:49 -13.7 °C -15.7 °C 34496.6 hPa Calm     78 % 0 mm 0.0 W/m2 CLR
02:54 -13.7 °C -15.7 °C 34496.6 hPa Calm     78 % 0 mm 0.0 W/m2 CLR
02:59 -13.7 °C -15.7 °C 34496.6 hPa Calm     78 % 0 mm 0.0 W/m2 CLR
03:04 -13.7 °C -15.7 °C 34496.6 hPa Calm     78 % 0 mm 0.0 W/m2 CLR
03:09 -13.8 °C -15.8 °C 34496.6 hPa Calm     78 % 0 mm 0.0 W/m2 CLR
03:14 -13.9 °C -15.8 °C 34496.6 hPa Calm     79 % 0 mm 0.0 W/m2 CLR
03:19 -13.9 °C -15.8 °C 34486.4 hPa Calm     79 % 0 mm 0.0 W/m2 CLR
03:24 -13.9 °C -15.8 °C 34486.4 hPa Calm     79 % 0 mm 0.0 W/m2 CLR
03:29 -13.9 °C -15.8 °C 34486.4 hPa Calm     79 % 0 mm 0.0 W/m2 CLR
03:34 -13.9 °C -15.8 °C 34486.4 hPa Calm     79 % 0 mm 0.0 W/m2 CLR
03:39 -14 °C -15.9 °C 34486.4 hPa Calm     79 % 0 mm 0.0 W/m2 CLR
03:44 -14.1 °C -15.8 °C 34486.4 hPa Calm     80 % 0 mm 0.0 W/m2 CLR
03:49 -14.1 °C -15.8 °C 34486.4 hPa Calm     80 % 0 mm 0.0 W/m2 CLR
03:54 -14.1 °C -15.9 °C 34486.4 hPa Calm     80 % 0 mm 0.0 W/m2 CLR
03:59 -14.1 °C -15.9 °C 34486.4 hPa Calm     80 % 0 mm 0.0 W/m2 CLR
04:04 -14.2 °C -16 °C 34486.4 hPa Calm     80 % 0 mm 0.0 W/m2 CLR
04:09 -14.1 °C -16 °C 34486.4 hPa Calm     79 % 0 mm 0.0 W/m2 CLR
04:14 -13.9 °C -15.9 °C 34486.4 hPa Calm     78 % 0 mm 0.0 W/m2 CLR
04:19 -13.7 °C -15.9 °C 34486.4 hPa Calm     76 % 0 mm 0.0 W/m2 CLR
04:24 -13.6 °C -15.9 °C 34486.4 hPa Calm     75 % 0 mm 0.0 W/m2 CLR
04:29 -13.6 °C -15.9 °C 34486.4 hPa Calm     75 % 0 mm 0.0 W/m2 CLR
04:34 -13.6 °C -15.9 °C 34486.4 hPa Calm     75 % 0 mm 0.0 W/m2 CLR
04:39 -13.7 °C -15.9 °C 34486.4 hPa Calm     76 % 0 mm 0.0 W/m2 CLR
04:40 -13.8 °C -15.9 °C 34486.4 hPa Calm     76 % 0 mm 0.0 W/m2 CLR
04:45 -13.8 °C -16 °C 34486.4 hPa Calm     76 % 0 mm 0.0 W/m2 CLR
04:50 -13.9 °C -16.1 °C 34486.4 hPa Calm     76 % 0 mm 0.0 W/m2 CLR
04:55 -13.8 °C -16.1 °C 34486.4 hPa Calm     76 % 0 mm 0.0 W/m2 CLR
05:00 -13.8 °C -16 °C 34486.4 hPa Calm     76 % 0 mm 0.0 W/m2 CLR
05:05 -13.8 °C -15.9 °C 34486.4 hPa Calm     77 % 0 mm 0.0 W/m2 CLR
05:10 -13.8 °C -16.1 °C 34486.4 hPa Calm     76 % 0 mm 0.0 W/m2 CLR
05:15 -13.9 °C -16 °C 34486.4 hPa Calm     77 % 0 mm 0.0 W/m2 CLR
05:20 -14 °C -16.1 °C 34486.4 hPa Calm     77 % 0 mm 0.0 W/m2 CLR
05:26 -14.1 °C -16.1 °C 34486.4 hPa Calm     78 % 0 mm 0.0 W/m2 CLR
05:31 -14.1 °C -16.1 °C 34486.4 hPa Calm     78 % 0 mm 0.0 W/m2 CLR
05:36 -14.2 °C -16.1 °C 34496.6 hPa Calm     79 % 0 mm 0.0 W/m2 CLR
05:41 -14.3 °C -16.2 °C 34496.6 hPa Calm     79 % 0 mm 0.0 W/m2 CLR
05:46 -14.3 °C -16.1 °C 34496.6 hPa Calm     80 % 0 mm 0.0 W/m2 CLR
05:51 -14.3 °C -16.2 °C 34496.6 hPa Calm     80 % 0 mm 0.0 W/m2 CLR
05:56 -14.4 °C -16.2 °C 34496.6 hPa Calm     80 % 0 mm 0.0 W/m2 CLR
06:01 -14.4 °C -16.1 °C 34496.6 hPa Calm     81 % 0 mm 0.0 W/m2 CLR
06:06 -14.4 °C -16.2 °C 34496.6 hPa Calm     80 % 0 mm 0.0 W/m2 CLR
06:11 -14.5 °C -16.2 °C 34496.6 hPa Calm     81 % 0 mm 0.0 W/m2 CLR
06:16 -14.5 °C -16.2 °C 34496.6 hPa Calm     81 % 0 mm 0.0 W/m2 CLR
06:21 -14.4 °C -16.1 °C 34496.6 hPa Calm     81 % 0 mm 0.0 W/m2 CLR
06:26 -14.3 °C -16.2 °C 34496.6 hPa Calm     80 % 0 mm 0.0 W/m2 CLR
06:31 -14.4 °C -16.2 °C 34496.6 hPa Calm     80 % 0 mm 0.0 W/m2 CLR
06:36 -14.4 °C -16.2 °C 34510.1 hPa Calm     80 % 0 mm 0.0 W/m2 CLR
06:41 -14.5 °C -16.3 °C 34510.1 hPa Calm     80 % 0 mm 0.0 W/m2 CLR
06:46 -14.6 °C -16.3 °C 34510.1 hPa Calm     81 % 0 mm 0.0 W/m2 CLR
06:51 -14.7 °C -16.3 °C 34510.1 hPa Calm     82 % 0 mm 0.0 W/m2 CLR
06:56 -14.7 °C -16.3 °C 34510.1 hPa Calm     82 % 0 mm 0.0 W/m2 CLR
07:01 -14.7 °C -16.2 °C 34510.1 hPa Calm     83 % 0 mm 0.0 W/m2 CLR
07:06 -14.7 °C -16.2 °C 34510.1 hPa Calm     83 % 0 mm 0.0 W/m2 CLR
07:11 -14.7 °C -16.2 °C 34510.1 hPa Calm     83 % 0 mm 0.0 W/m2 OVC
07:16 -14.7 °C -16.2 °C 34510.1 hPa Calm     83 % 0 mm 5.0 W/m2 OVC
07:21 -14.7 °C -16.2 °C 34510.1 hPa Calm     83 % 0 mm 9.0 W/m2 OVC
07:26 -14.8 °C -16.2 °C 34510.1 hPa Calm     83 % 0 mm 12.0 W/m2 BKN
07:31 -14.8 °C -16.2 °C 34510.1 hPa Calm     83 % 0 mm 16.0 W/m2 BKN
07:36 -14.8 °C -16.3 °C 34510.1 hPa Calm     83 % 0 mm 21.0 W/m2 BKN
07:41 -14.8 °C -16.3 °C 34510.1 hPa Calm     83 % 0 mm 26.0 W/m2 BKN
07:46 -14.7 °C -16.1 °C 34510.1 hPa Calm     84 % 0 mm 30.0 W/m2 BKN
07:51 -14.6 °C -16.1 °C 34510.1 hPa Calm     83 % 0 mm 39.0 W/m2 BKN
07:56 -14.4 °C -15.9 °C 34510.1 hPa Calm     83 % 0 mm 49.0 W/m2 SCT
08:01 -14.3 °C -15.9 °C 34510.1 hPa Calm     82 % 0 mm 63.0 W/m2 SCT
08:06 -14.1 °C -15.7 °C 34510.1 hPa Calm     82 % 0 mm 76.0 W/m2 FEW
08:11 -13.9 °C -15.7 °C 34510.1 hPa Calm     80 % 0 mm 88.0 W/m2 CLR
08:16 -13.8 °C -15.7 °C 34510.1 hPa Calm     79 % 0 mm 81.0 W/m2 FEW
08:21 -13.7 °C -15.7 °C 34510.1 hPa Calm     78 % 0 mm 76.0 W/m2 FEW
08:26 -13.5 °C -15.5 °C 34510.1 hPa Calm     78 % 0 mm 70.0 W/m2 FEW
08:31 -13.3 °C -15.4 °C 34510.1 hPa Calm     77 % 0 mm 111.0 W/m2 FEW
08:36 -13.2 °C -15.4 °C 34510.1 hPa Calm     76 % 0 mm 176.0 W/m2 CLR
08:41 -13 °C -15.3 °C 34510.1 hPa Calm     75 % 0 mm 204.0 W/m2 CLR
08:46 -12.9 °C -15.4 °C 34510.1 hPa Calm     74 % 0 mm 149.0 W/m2 CLR
08:51 -12.7 °C -15.3 °C 34510.1 hPa Calm     73 % 0 mm 216.0 W/m2 CLR
08:56 -12.4 °C -15 °C 34510.1 hPa Calm     73 % 0 mm 257.0 W/m2 CLR
09:01 -12.1 °C -14.9 °C 34510.1 hPa Calm     71 % 0 mm 269.0 W/m2 CLR
09:06 -11.8 °C -14.8 °C 34510.1 hPa Calm     69 % 0 mm 255.0 W/m2 CLR
09:11 -11.5 °C -14.8 °C 34510.1 hPa Calm     67 % 0 mm 237.0 W/m2 CLR
09:16 -11.3 °C -14.7 °C 34496.6 hPa Calm     66 % 0 mm 288.0 W/m2 CLR
09:21 -11 °C -14.6 °C 34496.6 hPa Calm     65 % 0 mm 329.0 W/m2 CLR
09:26 -10.7 °C -14.3 °C 34496.6 hPa Calm     64 % 0 mm 311.0 W/m2 CLR
09:31 -10.3 °C -14.4 °C 34496.6 hPa Calm     61 % 0 mm 309.0 W/m2 CLR
09:36 -9.9 °C -13.8 °C 34486.4 hPa Calm     63 % 0 mm 367.0 W/m2 CLR
09:41 -9.6 °C -13.8 °C 34486.4 hPa Calm     60 % 0 mm 385.0 W/m2 CLR
09:46 -9.4 °C -13.8 °C 34486.4 hPa Calm     59 % 0 mm 401.0 W/m2 CLR
09:51 -9.2 °C -14.1 °C 34486.4 hPa Calm     56 % 0 mm 413.0 W/m2 CLR
09:56 -9 °C -13.7 °C 34486.4 hPa Calm     57 % 0 mm 427.0 W/m2 CLR
10:01 -8.8 °C -13.8 °C 34476.3 hPa Calm     55 % 0 mm 439.0 W/m2 CLR
10:06 -8.7 °C -14 °C 34476.3 hPa Calm     53 % 0 mm 457.0 W/m2 CLR
10:11 -8.5 °C -13.8 °C 34476.3 hPa Calm     53 % 0 mm 469.0 W/m2 CLR
10:16 -8.2 °C -13.9 °C 34476.3 hPa Calm     51 % 0 mm 482.0 W/m2 CLR
10:21 -8 °C -13.9 °C 34476.3 hPa Calm     50 % 0 mm 496.0 W/m2 CLR
10:26 -7.8 °C -13.8 °C 34476.3 hPa Calm     49 % 0 mm 510.0 W/m2 CLR
10:31 -7.6 °C -13.9 °C 34462.7 hPa Calm     47 % 0 mm 522.0 W/m2 CLR
10:36 -7.3 °C -13.9 °C 34462.7 hPa Calm     46 % 0 mm 534.0 W/m2 CLR
10:41 -7.1 °C -13.7 °C 34462.7 hPa Calm     46 % 0 mm 548.0 W/m2 CLR
10:46 -6.9 °C -13.4 °C 34462.7 hPa Calm     47 % 0 mm 561.0 W/m2 CLR
10:51 -6.8 °C -13.8 °C 34462.7 hPa Calm     44 % 0 mm 573.0 W/m2 CLR
10:56 -6.6 °C -13.5 °C 34462.7 hPa Calm     45 % 0 mm 585.0 W/m2 CLR
11:01 -6.4 °C -13.5 °C 34462.7 hPa Calm     44 % 0 mm 599.0 W/m2 CLR
11:06 -6.3 °C -13.3 °C 34462.7 hPa NE 3.1 km/h   44 % 0 mm 612.0 W/m2 CLR
11:12 -6.2 °C -13.6 °C 34462.7 hPa East 11.9 km/h 11.9 km/h 42 % 0 mm 615.0 W/m2 CLR
11:17 -6.2 °C -13.4 °C 34462.7 hPa ENE 15 km/h 15 km/h 43 % 0 mm 613.0 W/m2 CLR
11:22 -6.2 °C -13.5 °C 34462.7 hPa ENE 15 km/h 15 km/h 43 % 0 mm 635.0 W/m2 CLR
11:27 -6.3 °C -13.3 °C 34462.7 hPa ENE 17.9 km/h 17.9 km/h 44 % 0 mm 640.0 W/m2 CLR
11:32 -6.4 °C -13.1 °C 34462.7 hPa NE 17.9 km/h 17.9 km/h 46 % 0 mm 649.0 W/m2 CLR
11:37 -6.4 °C -12.7 °C 34452.6 hPa NE 17.9 km/h 17.9 km/h 48 % 0 mm 656.0 W/m2 CLR
11:42 -6.3 °C -12.8 °C 34452.6 hPa NE 15 km/h 15 km/h 47 % 0 mm 670.0 W/m2 CLR
11:47 -6.3 °C -12.6 °C 34452.6 hPa ENE 15 km/h 15 km/h 48 % 0 mm 684.0 W/m2 CLR
11:52 -6.2 °C -12.7 °C 34452.6 hPa ENE 17.9 km/h 17.9 km/h 47 % 0 mm 714.0 W/m2 CLR
11:57 -6.1 °C -12.4 °C 34452.6 hPa NE 15 km/h 15 km/h 48 % 0 mm 617.0 W/m2 CLR
12:02 -5.9 °C -12.3 °C 34452.6 hPa ENE 17.9 km/h 17.9 km/h 48 % 0 mm 752.0 W/m2 CLR
12:07 -5.9 °C -12.9 °C 34452.6 hPa East 11.9 km/h 11.9 km/h 45 % 0 mm 701.0 W/m2 CLR
12:12 -5.9 °C -12.8 °C 34452.6 hPa ESE 9 km/h 9 km/h 45 % 0 mm 596.0 W/m2 CLR
12:17 -6 °C -12.9 °C 34452.6 hPa Calm     45 % 0 mm 403.0 W/m2 CLR
12:22 -6.1 °C -13.1 °C 34442.4 hPa ENE 17.9 km/h 17.9 km/h 44 % 0 mm 786.0 W/m2 CLR
12:27 -5.9 °C -13 °C 34442.4 hPa ESE 15 km/h 15 km/h 44 % 0 mm 668.0 W/m2 CLR
12:32 -6 °C -12.7 °C 34442.4 hPa East 9 km/h 9 km/h 46 % 0 mm 772.0 W/m2 CLR
12:37 -5.9 °C -13 °C 34442.4 hPa ENE 20.9 km/h 20.9 km/h 44 % 0 mm 793.0 W/m2 CLR
12:42 -5.9 °C -13 °C 34428.8 hPa ENE 12.9 km/h 12.9 km/h 44 % 0 mm 754.0 W/m2 CLR
12:47 -5.8 °C -13.1 °C 34428.8 hPa ENE 9 km/h 9 km/h 43 % 0 mm 533.0 W/m2 CLR
12:52 -5.7 °C -13.2 °C 34428.8 hPa East 10.3 km/h 10.3 km/h 42 % 0 mm 752.0 W/m2 CLR
12:57 -5.4 °C -13.2 °C 34428.8 hPa ENE 9 km/h 9 km/h 41 % 0 mm 745.0 W/m2 CLR
13:02 -5.2 °C -13.2 °C 34428.8 hPa NE 9 km/h 9 km/h 40 % 0 mm 747.0 W/m2 CLR
13:07 -5.1 °C -13.1 °C 34428.8 hPa Calm     40 % 0 mm 752.0 W/m2 CLR
13:12 -4.9 °C -12.9 °C 34428.8 hPa North 11.9 km/h 11.9 km/h 40 % 0 mm 768.0 W/m2 CLR
13:13 -4.9 °C -12.9 °C 34428.8 hPa NNW 11.9 km/h 11.9 km/h 40 % 0 mm 773.0 W/m2 CLR
13:18 -4.8 °C -13.2 °C 34428.8 hPa NW 11.9 km/h 11.9 km/h 38 % 0 mm 754.0 W/m2 CLR
13:23 -4.9 °C -13.3 °C 34418.7 hPa NW 11.9 km/h 11.9 km/h 38 % 0 mm 721.0 W/m2 CLR
13:28 -4.9 °C -13.3 °C 34418.7 hPa NW 9 km/h 9 km/h 38 % 0 mm 462.0 W/m2 CLR
13:33 -4.8 °C -13.4 °C 34418.7 hPa Calm     37 % 0 mm 577.0 W/m2 CLR
13:38 -4.8 °C -13.4 °C 34405.1 hPa ENE 11.9 km/h   37 % 0 mm 613.0 W/m2 CLR
13:43 -4.7 °C -13.5 °C 34405.1 hPa Calm     36 % 0 mm 680.0 W/m2 CLR
13:48 -4.6 °C -14.1 °C 34405.1 hPa Calm   1 km/h 33 % 0 mm 731.0 W/m2 CLR
13:53 -4.4 °C -13.7 °C 34395 hPa Calm     34 % 0 mm 722.0 W/m2 CLR
13:58 -4.3 °C -13.9 °C 34395 hPa Calm     33 % 0 mm 715.0 W/m2 CLR
14:03 -4.1 °C -13.4 °C 34395 hPa Calm     34 % 0 mm 712.0 W/m2 CLR
14:08 -3.8 °C -13.5 °C 34384.8 hPa NNE 9 km/h 9 km/h 33 % 0 mm 707.0 W/m2 CLR
14:13 -3.8 °C -13.8 °C 34384.8 hPa NNE 11.9 km/h 11.9 km/h 32 % 0 mm 700.0 W/m2 CLR
14:18 -3.9 °C -14.1 °C 34384.8 hPa ENE 7.7 km/h 7.7 km/h 31 % 0 mm 694.0 W/m2 CLR
14:23 -3.9 °C -13.8 °C 34384.8 hPa Calm   0.5 km/h 32 % 0 mm 691.0 W/m2 CLR
14:28 -3.8 °C -14.1 °C 34384.8 hPa Calm     31 % 0 mm 686.0 W/m2 CLR
14:33 -3.8 °C -14 °C 34384.8 hPa North 15.6 km/h 15.6 km/h 31 % 0 mm 677.0 W/m2 CLR
14:38 -3.9 °C -13.6 °C 34371.3 hPa NNE 6 km/h 6 km/h 33 % 0 mm 670.0 W/m2 CLR
14:43 -3.9 °C -13.8 °C 34371.3 hPa NNW 6 km/h 6 km/h 32 % 0 mm 666.0 W/m2 CLR
14:48 -4 °C -14.1 °C 34371.3 hPa North 17.9 km/h 17.9 km/h 31 % 0 mm 657.0 W/m2 CLR
14:53 -4 °C -14.4 °C 34371.3 hPa Calm     30 % 0 mm 649.0 W/m2 CLR
14:58 -3.9 °C -13.8 °C 34371.3 hPa North 12.9 km/h 12.9 km/h 32 % 0 mm 640.0 W/m2 CLR
15:03 -3.8 °C -14.3 °C 34371.3 hPa North 12.9 km/h 12.9 km/h 30 % 0 mm 631.0 W/m2 CLR
15:08 -3.9 °C -14.3 °C 34371.3 hPa North 12.9 km/h 12.9 km/h 30 % 0 mm 617.0 W/m2 CLR
15:13 -3.8 °C -14.3 °C 34371.3 hPa NE 6 km/h   30 % 0 mm 608.0 W/m2 CLR
15:18 -3.7 °C -14.8 °C 34361.1 hPa North 6 km/h 6 km/h 28 % 0 mm 591.0 W/m2 CLR
15:23 -3.7 °C -14.9 °C 34361.1 hPa Calm     27 % 0 mm 608.0 W/m2 CLR
15:28 -3.6 °C -14.6 °C 34361.1 hPa North 15 km/h 15 km/h 28 % 0 mm 573.0 W/m2 CLR
15:33 -3.7 °C -14.4 °C 34361.1 hPa North 15 km/h 15 km/h 29 % 0 mm 345.0 W/m2 CLR
15:38 -3.7 °C -14.8 °C 34361.1 hPa North 10.3 km/h 10.3 km/h 28 % 0 mm 548.0 W/m2 CLR
15:43 -3.7 °C -14.8 °C 34361.1 hPa North 6 km/h 6 km/h 28 % 0 mm 554.0 W/m2 CLR
15:48 -3.7 °C -14.1 °C 34361.1 hPa Calm     30 % 0 mm 508.0 W/m2 CLR
15:53 -3.6 °C -14.1 °C 34347.6 hPa NNE 9 km/h 9 km/h 30 % 0 mm 422.0 W/m2 CLR
15:58 -3.6 °C -14.6 °C 34347.6 hPa Calm     28 % 0 mm 441.0 W/m2 CLR
16:03 -3.6 °C -14.6 °C 34347.6 hPa NE 11.9 km/h 11.9 km/h 28 % 0 mm 522.0 W/m2 CLR
16:08 -3.6 °C -14.6 °C 34347.6 hPa East 7.7 km/h 7.7 km/h 28 % 0 mm 473.0 W/m2 CLR
16:13 -3.6 °C -14.9 °C 34347.6 hPa ENE 6 km/h   27 % 0 mm 443.0 W/m2 CLR
16:18 -3.7 °C -15 °C 34337.4 hPa Calm     27 % 0 mm 475.0 W/m2 CLR
16:23 -3.6 °C -14.6 °C 34337.4 hPa NE 3.1 km/h   28 % 0 mm 466.0 W/m2 CLR
16:28 -3.5 °C -14.6 °C 34337.4 hPa Calm     28 % 0 mm 438.0 W/m2 CLR
16:33 -3.6 °C -14.9 °C 34337.4 hPa ENE 9 km/h 9 km/h 27 % 0 mm 417.0 W/m2 CLR
16:38 -3.6 °C -14.6 °C 34327.3 hPa ENE 9 km/h 9 km/h 28 % 0 mm 394.0 W/m2 CLR
16:43 -3.5 °C -14.6 °C 34327.3 hPa NE 9 km/h 9 km/h 28 % 0 mm 369.0 W/m2 CLR
16:48 -3.6 °C -14.3 °C 34327.3 hPa NNE 11.9 km/h 11.9 km/h 29 % 0 mm 364.0 W/m2 CLR
16:53 -3.6 °C -14.1 °C 34327.3 hPa NNE 6 km/h 6 km/h 30 % 0 mm 350.0 W/m2 CLR
16:58 -3.6 °C -13.8 °C 34327.3 hPa Calm     31 % 0 mm 336.0 W/m2 CLR
17:03 -3.5 °C -14 °C 34327.3 hPa Calm     30 % 0 mm 318.0 W/m2 CLR
17:08 -3.4 °C -14.2 °C 34327.3 hPa North 3.1 km/h   29 % 0 mm 301.0 W/m2 CLR
17:13 -3.4 °C -14.2 °C 34313.7 hPa Calm     29 % 0 mm 287.0 W/m2 CLR
17:18 -3.4 °C -14.4 °C 34313.7 hPa Calm     28 % 0 mm 267.0 W/m2 CLR
17:23 -3.3 °C -14.4 °C 34313.7 hPa Calm     28 % 0 mm 250.0 W/m2 CLR
17:28 -3.3 °C -14.7 °C 34313.7 hPa Calm     27 % 0 mm 234.0 W/m2 CLR
17:33 -3.3 °C -13.8 °C 34313.7 hPa Calm     30 % 0 mm 214.0 W/m2 CLR
17:38 -3.3 °C -13.8 °C 34313.7 hPa Calm     30 % 0 mm 199.0 W/m2 CLR
17:43 -3.3 °C -14.4 °C 34313.7 hPa Calm     28 % 0 mm 176.0 W/m2 CLR
17:49 -3.3 °C -14.1 °C 34313.7 hPa Calm     29 % 0 mm 158.0 W/m2 CLR
Lo Temps de Massalio
Compliments of Weather Underground - 1 mb